Location: Elmsmere
(40.9284°N, 73.8207°W)
Time: 05:37:29
(UTC+00:00)

NOSS 3-3 (A) - Pass Details

Date: 29 October 2020
Orbit: 826 x 1387 km, 63.4° (Epoch: 22 November)

Event Time Altitude Azimuth Distance (km) Brightness Sun altitude
Rises 23:24:16 0° 220° (SW) 3,388 7.5 -17.5°
Reaches altitude 10° 23:26:38 10° 222° (SW) 2,490 6.8 -18.0°
Maximum altitude 23:32:21 72° 307° (NW) 968 4.1 -19.0°
Enters shadow 23:38:34 11° 31° (NNE) 2,707 6.0 -20.2°
